This demonstration page uses our WeatherBlox Daily Observations layout. Learn more.

Left ArrowRight Arrow

Hourly Observations for February 22, 2016

Temp ( °F °C ) Dew Point ( °F °C ) Humidity (%) Winds ( mph kmh ) Pressure ( in mb ) Visibility ( mi km ) Precip ( " mm )
12:57 am 00:57 Cloudy 39 4 36 2 87 87 NW 5 7 30.27 1025 10 16 0.00 0.00
12:58 am 00:58 Cloudy 39 4 36 2 87 87 NW 5 7 30.26 1025 10 16 0.00 0.00
1:45 am 01:45 Cloudy 39 4 36 2 87 87 NW 7 11 30.24 1024 10 16 0.00 0.00
1:58 am 01:58 Cloudy 39 4.1 37 2.5 89 89 NW 6 9 30.24 1024 10 16 0.00 0.00
2:58 am 02:58 Cloudy 39 3.9 37 2.5 91 91 NW 5 7 30.22 1023 10 16 0.00 0.00
3:45 am 03:45 Cloudy 37 3 37 3 100 100 NNE 2 4 30.21 1023 10 16 0.00 0.00
3:47 am 03:47 Cloudy 37 3 37 3 100 100 ENE 3 6 30.21 1023 10 16 0.00 0.00
3:58 am 03:58 Cloudy 39 4 37 3 93 93 NE 1 2 30.20 1023 10 16 0.00 0.00
4:23 am 04:23 Cloudy 37 3 37 3 100 100 NE 3 6 30.18 1022 10 16 0.00 0.00
4:46 am 04:46 Cloudy 37 3 36 2 93 93 NNE 5 7 30.21 1023 10 16 0.00 0.00
4:53 am 04:53 Cloudy 37 3 37 3 100 100 NNE 3 6 30.21 1023 10 16 0.00 0.00
4:58 am 04:58 Cloudy 37 3 37 2.6 97 97 NNE 3 6 30.20 1023 10 16 0.00 0.00
5:05 am 05:05 Cloudy 37 3 37 3 100 100 N 2 4 30.18 1022 10 16 0.00 0.00
5:14 am 05:14 Cloudy 37 3 36 2 93 93 NE 2 4 30.18 1022 10 16 0.00 0.00
5:43 am 05:43 Cloudy 37 3 37 3 100 100 NE 2 4 30.21 1023 10 16 0.00 0.00
5:58 am 05:58 Cloudy 37 2.6 37 2.5 99 99 Calm 30.20 1023 10 16 0.00 0.00
6:15 am 06:15 Cloudy 37 3 37 3 100 100 NE 1 2 30.21 1023 10 16 0.00 0.00
6:58 am 06:58 Cloudy 37 2.6 37 2.5 99 99 ENE 2 4 30.19 1022 10 16 0.00 0.00
7:25 am 07:25 Cloudy 36 2 36 2 100 100 NE 2 4 30.21 1023 10 16 0.00 0.00
7:40 am 07:40 Cloudy 37 3 36 2 93 93 NE 2 4 30.18 1022 10 16 0.00 0.00
7:58 am 07:58 Cloudy 37 2.7 37 2.5 99 99 NE 3 6 30.19 1022 10 16 0.00 0.00
8:13 am 08:13 Cloudy 37 3 37 3 100 100 ENE 2 4 30.18 1022 10 16 0.00 0.00
8:18 am 08:18 Cloudy 37 3 37 3 100 100 NE 2 4 30.18 1022 10 16 0.00 0.00
8:58 am 08:58 Cloudy 38 3.3 38 3.1 99 99 NNE 3 6 30.19 1023 10 16 0.00 0.00
9:32 am 09:32 Cloudy 39 4 37 3 93 93 ENE 2 4 30.18 1022 10 16 0.00 0.00
9:52 am 09:52 Cloudy 39 4 36 2 87 87 S 2 4 30.18 1022 10 16 0.00 0.00
9:58 am 09:58 Cloudy 40 4.3 35 1.9 85 85 S 5 7 30.19 1022 10 16 0.00 0.00
10:27 am 10:27 Cloudy 41 5 37 3 87 87 VRB 5 7 30.18 1022 10 16 0.00 0.00
10:41 am 10:41 Cloudy 39 4 36 2 87 87 SSE 5 7 30.18 1022 10 16 0.00 0.00
10:58 am 10:58 Cloudy 40 4.7 36 2.2 84 84 SE 3 6 30.18 1022 10 16 0.00 0.00
11:32 am 11:32 Cloudy 41 5 36 2 81 81 S 6 9 30.18 1022 10 16 0.00 0.00
11:34 am 11:34 Cloudy 41 5 36 2 81 81 S 5 7 30.18 1022 10 16 0.00 0.00
11:36 am 11:36 Cloudy 41 5 36 2 81 81 S 5 7 30.18 1022 10 16 0.00 0.00
11:39 am 11:39 Cloudy 41 5 36 2 81 81 SSE 6 9 30.18 1022 10 16 0.00 0.00
11:47 am 11:47 Cloudy 41 5 36 2 81 81 SSE 3 6 30.15 1021 10 16 0.00 0.00
11:54 am 11:54 Cloudy 41 5 36 2 81 81 SSE 6 9 30.15 1021 10 16 0.00 0.00
11:58 am 11:58 Cloudy 41 5.1 35 1.8 79 79 SSE 5 7 30.16 1021 10 16 0.00 0.00
12:58 pm 12:58 Cloudy 42 5.4 35 1.5 76 76 S 3 6 30.13 1020 10 16 0.00 0.00
1:08 pm 13:08 Cloudy 41 5 36 2 81 81 SSW 6 9 30.12 1020 10 16 0.00 0.00
1:13 pm 13:13 Cloudy 41 5 34 1 76 76 SSW 3 6 30.12 1020 10 16 0.00 0.00
1:21 pm 13:21 Cloudy 41 5 34 1 76 76 SSW 5 7 30.12 1020 10 16 0.00 0.00
1:55 pm 13:55 Cloudy 43 6 34 1 71 71 Calm 30.09 1019 10 16 0.00 0.00
1:58 pm 13:58 Cloudy 43 5.9 34 1.1 72 72 Calm 30.10 1019 10 16 0.00 0.00
2:58 pm 14:58 Cloudy 43 6 34 0.9 70 70 S 5 7 30.09 1019 10 16 0.00 0.00
3:58 pm 15:58 Cloudy 43 6 34 1 71 71 S 5 7 30.07 1018 10 16 0.00 0.00
4:58 pm 16:58 Cloudy 43 6.2 34 1.2 71 71 ENE 5 7 30.06 1018 10 16 0.00 0.00
5:19 pm 17:19 Cloudy 43 6 34 1 71 71 E 5 7 30.06 1018 10 16 0.00 0.00
5:58 pm 17:58 Cloudy 40 4.6 34 1.2 79 79 ENE 2 4 30.04 1017 10 16 0.00 0.00
6:58 pm 18:58 Cloudy 37 2.6 33 0.5 86 86 E 3 6 30.06 1018 10 16 0.00 0.00
7:58 pm 19:58 Cloudy 35 1.5 33 0.7 94 94 E 3 6 30.06 1018 10 16 0.00 0.00
8:58 pm 20:58 Cloudy 39 3.7 34 0.9 82 82 ESE 6 9 30.07 1018 10 16 0.00 0.00
9:58 pm 21:58 Cloudy 36 2.4 33 0.5 87 87 Calm 30.10 1019 10 16 0.00 0.00
10:58 pm 22:58 Mostly Cloudy 35 1.4 32 0 91 91 SE 2 4 30.09 1019 10 16 0.00 0.00
11:58 pm 23:58 Cloudy 34 1.2 32 -0.1 91 91 SE 3 6 30.08 1019 10 16 0.00 0.00

Powered by AerisWeather